{"data":{"norad_id":64228,"epoch":"2026-09-19T11:42:07.749216Z","epoch_age_seconds":225082,"freshness":"STALE","line1":"1 64228U 25117AB  26262.48758969  .00028535  00000+0  85245-3 0  9991","line2":"2 64228  53.1568 214.7048 0001622  93.5177 266.6011 15.34399560 74290","mean_motion":15.3439956,"eccentricity":0.0001622,"inclination_deg":53.1568,"raan_deg":214.7048,"arg_perigee_deg":93.5177,"mean_anomaly_deg":266.6011,"bstar":0.00085245,"rev_number":7429,"period_min":93.847784992848,"perigee_km":461.59496348106,"apogee_km":463.81413247923,"semimajor_km":6840.8415479801,"source":"CELESTRAK","updated_at":"2026-09-21T09:00:35.275496Z"}}